Weather in Melekeok

Palau     7°29′53″N   134°38′14″E
temp.,
°C
wind,
m/s
gust,
m/s
humid.,
%
clouds,
%
prec.,
mm/h
press.,
hPa
HPBL,
m
17 may, mon
mon1700:00+28ese8107882 6.5 1008818
03:00+28ese91081100 8.1 1007806
06:00+27ese91084100 2.4 1009807
09:00+27ese81082100 2.9 1010779
12:00+27ese7989100 3.1 1009654
15:00+27ese6783100 4.6 1007729
18:00+28ese6779100 0.8 1008757
21:00+28se5679100 1.5 1010695
18 may, tue
tue1800:00+28ese6780100 3.9 1009538
03:00+27se5682100 6.6 1008521
06:00+27se8887100 4.6 1009620
09:00+26se6790100 11.0 1010546
12:00+26ese4687100 2.9 1009550
15:00+27se4581100 3.1 1007560
18:00+28se4576100 1.1 1008592
21:00+27se788293 4.3 1010564
19 may, wed
wed1900:00+26sse7990100 5.7 1009509
03:00+26s3485100 6.2 1007421
06:00+26w1181100 1.7 1009116
09:00+28ene347489 1.7 1010535
12:00+28ne3374100 0.0 1008657
15:00+28nne3374100 0.1 1007717
18:00+28n337850 2.8 1008339
21:00+28nne337791 4.7 1010429
20 may, thu
thu2000:00+27n2280100 3.1 1009139
03:00+28n1176100 3.6 1007323
06:00+28nw117660 0.0 1008350
09:00+28nnw117449 0.4 1010333
12:00+29ne227231 0.2 1008549
15:00+29n227122 0.6 1007766
18:00+29nne2270100 0.4 1008705
21:00+29ne1270100 0.4 1009581
21 may, fri
fri2100:00+28n1170100 0.0 1009541
03:00+28nnw1274100 0.1 1007373
06:00+28n2277100 1.1 1008293
09:00+28nne3473100 1.2 1009638
12:00+29ene447432 0.0 1007647
15:00+28ene337465 0.2 1006613
18:00+28ene337995 1.4 1007320
21:00+28ene237667 4.6 1008422